Voltar ao catálogo

FENGYUN 1C DEB

LostSSO
NORAD 37910·DEBRIS·🇨🇳 China

Lançado May 10, 1999 de Taiyuan Satellite Launch Center

Loading…

Próximas Passagens (próximas 24 horas)

TLE

ObsoletoSource: Space-Track

Época: Dec 8, 2011, 09:45 UTC

1 37910U 99025ENK 11342.40643757  .00002114  00000-0  10247-2 0  9996
2 37910  99.0233  38.7996 0051279 232.5082 191.6573 14.18836643153810

Acompanhe FENGYUN 1C DEB em tempo real com AllMySat

Download on the App Store